Regional Weather Roundup
Issued by NWS

Home | Current Version | Previous Version | Graphics & Text | Print | Product List | Glossary On
Versions: 1 2 3 4 5 6 7 8 9 10 11 12 13 14 15 16 17 18 19 20 21 22 23 24 25 26 27 28 29 30 31 32 33 34 35 36 37 38 39 40 41 42 43 44 45 46 47 48 49 50
000
ASUS45 KCYS 201710
RWRWY

WYOMING REGIONAL WEATHER ROUNDUP
NATIONAL WEATHER SERVICE CHEYENNE WY
1100 AM MDT SAT SEP 20 2014

NOTE:  "FAIR" INDICATES FEW OR NO CLOUDS BELOW 12,000 FEET
WITH NO SIGNIFICANT WEATHER AND/OR OBSTRUCTIONS TO VISIBILITY.

WYZ001-201800-
YELLOWSTONE NATIONAL PARK

CITY           SKY/WX    TMP DP  RH WIND       PRES   REMARKS
LK YELLOWSTONE   N/A     54  40  59 E3        30.45R
W YELLOWSTONE  NOT AVBL

$$
WYZ002>013-054>058-071-098>099-201800-
NORTHERN WYOMING

CITY           SKY/WX    TMP DP  RH WIND       PRES   REMARKS
JACKSON        SUNNY     57  46  67 CALM      30.37
CODY             N/A    N/A N/A N/A MISG        N/A
GREYBULL       SUNNY     69  43  38 NW7       30.25R
WORLAND        SUNNY     68  44  42 NW7       30.26R
SHERIDAN       SUNNY     70  44  39 N15       30.25R
BUFFALO        SUNNY     65  41  41 N22G37    30.28R
GILLETTE       SUNNY     68  41  37 NW20G26   30.24R
HULETT         FAIR      68  41  37 MISG      30.23
NEWCASTLE      FAIR      68  39  34 NW18      30.21

$$
WYZ014>020-022>026-101>103-201800-
CENTRAL WYOMING

CITY           SKY/WX    TMP DP  RH WIND       PRES   REMARKS
BIG PINEY      SUNNY     65  36  34 SE3       30.38S
PINEDALE       SUNNY     63  37  39 E3        30.39S
DUBOIS         FAIR      63  34  34 NW8       30.37S
LANDER         SUNNY     70  42  36 VRB5      30.28S
RIVERTON       SUNNY     66  44  45 E8        30.30R
CASPER         SUNNY     71  44  37 NW8       30.29R
DOUGLAS        SUNNY     71  46  40 NW7       30.27S

$$
WYZ021-027>030-104>119-201800-
SOUTHERN WYOMING

CITY           SKY/WX    TMP DP  RH WIND       PRES   REMARKS
EVANSTON       SUNNY     67  38  34 CALM      30.37S
KEMMERER       SUNNY     66  32  28 E7        30.39S
FORT BRIDGER   FAIR      63  38  40 N5        30.40S
ROCK SPRINGS   SUNNY     65  36  34 NE5       30.37R
DIXON          FAIR      66  40  38 CALM      30.37S
RAWLINS        SUNNY     67  36  31 VRB3      30.36R
SARATOGA       FAIR      64  36  34 CALM      30.37S
LARAMIE        SUNNY     66  38  35 VRB3      30.37R
CHEYENNE       SUNNY     71  46  40 CALM      30.30R
TORRINGTON     SUNNY     71  50  47 W8        30.20R
PINE BLUFFS    FAIR      70  45  40 CALM      30.26S

$$


USA.gov is the U.S. government's official web portal to all federal, state and local government web resources and services.